RH
54 76 86 77 70 66 61 58 67 46 43 43 41 39 37 31 30 31 28 23 30 36 37 34 36 40 47 50 53 57 58 59 61 66 56 54 51 48 45 42 38 36 36 35
69 84 59 54 57 64 62 74 76 51 41 42 38 40 33 32 29 28 28 25 32 40 40 37 34 37 46 54 59 60 57 56 57 55 54 52 50 48 43 39 37 32 28 26
76 65 56 51 54 64 63 67 78 71 46 49 40 46 39 30 27 28 28 24 32 37 41 41 41 40 46 51 52 59 60 56 55 52 51 48 47 43 42 40 36 33 26 20
64 51 52 59 59 55 67 54 64 74 82 73 44 66 43 34 33 32 29 27 35 36 39 40 44 45 48 49 49 50 50 52 52 50 50 47 41 40 39 36 33 31 27 24
78 67 58 64 76 54 65 55 67 70 81 80 61 57 47 31 38 33 29 28 35 36 39 44 50 50 52 50 49 48 46 44 42 40 39 39 38 36 34 30 26 23 24 22
71 56 58 60 55 66 53 68 84 79 76 90 81 58 48 36 32 30 28 33 36 37 42 47 48 52 55 50 46 44 42 42 40 38 38 36 36 34 28 25 22 19 20 20
92 87 66 75 86 61 66 88 96 100 99 92 46 60 44 24 24 24 27 35 37 40 45 52 58 60 56 51 45 42 41 40 38 38 37 34 31 28 24 21 19 18 18 19
86 84 87 79 86 75 81 92 100 97 98 57 38 54 41 24 23 27 29 34 38 42 47 52 56 56 55 50 42 41 39 38 36 34 32 30 26 24 22 20 20 18 18 17
97 95 80 69 63 74 80 99 84 83 40 50 49 34 28 29 27 30 34 37 41 42 48 50 55 54 53 46 42 40 38 35 32 29 26 24 23 21 20 19 18 18 18 18
93 100 82 82 76 82 86 75 98 83 58 68 55 46 42 37 36 29 37 40 43 43 47 49 52 53 49 46 44 40 37 33 30 27 24 21 19 18 17 18 18 18 18 19
93 98 96 81 95 90 97 97 82 66 58 56 58 45 32 32 32 33 34 37 42 44 45 48 52 49 47 46 46 41 37 32 28 25 22 20 19 19 18 19 19 18 18 19
90 97 100 99 74 74 77 82 59 56 60 55 49 45 26 30 29 32 31 35 39 42 44 48 52 49 48 48 45 41 36 31 27 23 22 21 21 20 20 20 20 20 20 20
94 99 100 99 94 94 92 77 57 56 51 56 48 47 29 34 33 28 33 38 40 44 48 49 54 54 50 48 44 42 37 31 26 22 21 22 23 23 22 23 23 22 22 22
86 81 99 98 73 82 89 72 57 59 62 49 42 40 33 37 38 34 34 38 43 45 45 48 54 57 48 46 43 41 36 29 25 22 22 24 25 25 24 24 25 25 24 25
83 93 88 61 62 62 64 65 61 60 55 51 38 36 32 36 39 37 36 40 44 46 46 49 57 56 48 44 41 38 34 29 25 23 24 26 26 26 25 26 26 25 25 27
52 76 65 49 43 50 63 60 58 54 48 47 46 43 27 27 32 36 39 40 42 44 47 50 54 53 48 42 39 35 32 27 24 24 26 27 26 25 25 26 26 26 26 26
62 72 64 58 43 45 54 48 54 54 49 48 54 41 30 30 30 35 37 39 42 44 48 52 55 54 45 41 38 35 32 27 24 25 25 25 26 26 25 25 25 25 25 27
68 71 66 63 47 71 40 34 35 41 40 40 38 35 32 34 35 42 35 38 44 45 49 53 58 51 44 40 38 34 29 26 26 25 24 25 24 24 24 24 25 25 27 29
52 65 78 75 75 54 44 35 37 43 43 35 39 37 41 49 51 55 53 49 52 53 56 56 51 46 43 41 34 28 27 27 25 24 24 24 24 25 25 25 25 26 31 35
71 78 90 92 78 76 42 36 32 34 53 41 37 36 50 49 63 65 57 58 63 63 60 58 50 46 43 36 31 29 28 26 24 24 25 25 26 26 26 25 26 32 38 40
91 93 96 90 91 75 38 36 32 49 51 44 38 42 50 61 58 57 57 63 62 61 56 51 49 47 40 34 31 30 26 24 26 24 26 26 26 25 25 26 31 38 40 38
83 97 96 97 99 93 40 42 46 52 41 38 48 52 62 60 57 59 63 66 64 64 55 50 45 37 34 32 31 27 25 26 25 27 27 26 25 24 26 30 35 37 37 35
84 75 78 79 75 50 44 51 43 44 46 49 59 57 55 59 62 64 66 66 64 57 51 44 37 34 33 32 30 26 27 27 27 27 25 25 24 25 31 34 36 36 35 35
55 53 55 51 54 53 51 46 42 44 52 53 54 54 55 62 63 65 64 64 60 53 51 42 37 36 34 31 28 27 28 27 27 26 25 23 25 32 34 37 37 35 35 39
51 52 53 60 58 54 49 48 52 55 53 54 54 55 58 59 63 64 66 66 64 57 50 44 42 39 35 35 28 29 29 27 28 26 25 28 32 36 39 39 37 38 41 43
53 50 57 57 49 48 54 54 54 56 57 59 60 66 64 64 66 66 71 68 65 63 55 53 49 40 37 32 28 30 28 27 28 28 31 34 39 42 42 39 41 43 45 48
Wind_Speed
11 9 17 23 22 18 15 17 16 17 17 21 20 19 15 13 11 10 8 6 10 10 9 8 11 12 14 16 18 19 21 20 20 21 23 22 22 20 19 17 14 13 14 14
10 21 25 14 17 18 21 18 17 15 20 20 19 17 16 10 14 13 9 9 10 11 8 7 13 15 16 16 18 18 20 22 23 23 23 23 21 18 17 16 14 13 14 14
19 20 16 18 18 20 22 23 16 15 15 9 8 12 10 12 15 9 11 9 15 15 10 8 9 15 16 17 18 18 20 22 23 25 24 23 21 18 15 13 12 12 13 14
15 18 20 19 23 19 22 23 22 19 17 11 11 4 15 21 16 10 8 6 15 14 11 8 9 15 16 17 18 19 20 20 20 19 21 19 18 17 13 12 10 9 11 12
10 11 18 22 21 20 20 17 22 27 11 4 6 5 9 10 19 9 9 10 14 14 12 10 9 18 16 16 18 19 20 21 20 20 20 20 19 15 13 11 9 7 7 8
13 9 12 16 21 20 22 15 20 18 11 8 13 9 6 6 13 13 9 10 14 14 12 10 19 19 17 16 18 19 20 20 20 20 19 18 17 14 12 10 9 9 7 7
7 19 8 4 12 20 22 14 8 7 6 4 16 8 6 4 8 14 14 13 14 13 12 12 10 13 17 16 17 18 20 20 19 19 17 16 15 13 12 10 9 7 6 8
9 8 14 14 11 15 24 22 3 5 5 6 15 6 5 7 8 11 13 15 14 13 11 11 9 16 19 18 17 19 19 19 17 17 15 14 13 11 11 9 8 8 7 9
3 9 5 10 15 16 10 9 17 6 10 6 4 4 4 8 6 10 13 16 15 14 13 12 11 19 21 18 18 19 19 18 16 15 14 12 11 10 9 7 7 7 7 8
3 6 6 12 8 9 7 8 10 4 7 7 6 8 5 10 9 8 13 15 14 13 14 11 10 19 21 19 19 18 17 17 16 14 12 11 10 9 7 6 8 8 8 9
5 3 1 1 8 13 8 6 9 4 5 5 5 1 10 9 12 11 11 15 16 14 14 12 9 21 22 20 19 18 18 17 15 13 12 9 8 8 6 6 7 8 8 9
9 4 4 6 4 12 10 8 11 3 2 1 4 2 6 9 8 9 9 16 15 13 12 11 10 20 23 20 18 18 17 16 14 12 10 9 8 5 5 5 6 7 8 10
12 5 2 5 8 1 4 7 5 5 3 3 3 3 7 8 8 5 9 12 13 13 11 10 10 11 18 20 19 18 17 16 13 11 10 9 6 4 4 5 6 8 10 12
7 6 6 5 6 11 6 7 6 5 1 2 2 6 6 7 9 7 8 10 13 13 12 10 10 7 19 21 20 18 17 16 13 11 10 8 4 3 3 5 7 9 11 14
4 4 13 10 18 17 14 9 8 9 7 1 3 7 9 10 10 9 8 9 13 12 12 11 10 9 17 21 20 18 17 15 12 11 9 5 4 2 4 6 8 11 13 15
12 6 12 10 6 12 13 13 12 10 7 7 9 5 7 8 9 9 9 9 11 12 12 10 9 9 14 21 21 19 18 15 12 10 7 5 2 3 4 7 9 12 15 18
6 4 5 4 4 5 4 8 14 9 8 8 10 7 4 6 7 9 10 10 9 9 10 9 9 9 18 23 23 20 18 15 12 9 6 3 2 3 5 8 11 14 17 20
7 3 3 2 2 1 2 1 5 11 8 10 9 5 4 8 6 10 6 8 8 8 8 8 8 15 21 23 22 20 18 14 11 8 5 2 1 4 7 10 12 16 19 21
9 2 1 1 3 6 1 1 1 6 9 8 8 9 8 10 7 8 10 11 10 9 7 11 20 24 24 22 23 21 16 13 10 7 4 1 3 5 8 11 15 19 21 24
6 6 3 4 1 3 2 2 6 3 2 6 6 8 14 7 5 4 7 10 10 12 17 18 24 24 23 21 20 19 16 12 9 5 3 1 4 6 9 13 17 20 22 23
4 3 5 4 2 6 2 3 4 4 3 6 6 9 11 5 1 12 11 10 11 14 19 22 22 20 21 19 18 17 14 10 7 4 2 2 4 8 10 15 18 20 21 23
6 5 3 3 2 6 6 4 2 2 2 4 8 9 17 14 13 13 11 10 10 9 15 19 20 20 18 16 16 15 12 8 5 2 0 3 7 10 13 15 19 19 21 23
7 6 5 7 5 1 3 3 1 3 4 5 10 11 15 14 12 11 9 9 8 11 15 19 20 19 15 12 13 14 10 7 4 1 2 6 10 13 13 16 17 20 21 22
4 7 2 5 4 4 5 3 1 5 8 9 9 11 11 14 10 10 9 8 7 11 12 19 19 17 15 12 12 11 9 6 3 3 6 9 11 12 15 18 18 21 23 22
2 7 6 2 2 3 1 4 7 10 11 11 9 9 11 12 9 9 8 7 8 13 14 16 17 17 16 12 11 9 7 4 4 5 7 9 10 15 17 19 19 21 22 21
4 6 5 4 10 4 6 8 9 13 11 10 14 10 8 9 9 8 7 9 13 13 14 12 13 19 15 13 11 7 4 3 4 6 7 10 12 17 19 21 24 20 19 22
Wind_Direction
206 212 219 212 213 229 249 251 239 239 211 234 233 226 224 230 249 255 217 243 149 120 124 141 131 121 108 115 118 117 121 126 131 130 114 106 102 101 97 91 88 81 75 58
219 226 226 226 236 239 240 251 268 243 247 221 238 226 229 225 246 226 217 204 141 121 134 150 132 117 108 103 104 107 107 113 120 122 120 120 117 111 104 98 82 69 65 58
216 236 232 238 234 236 239 238 244 254 230 267 239 246 243 232 233 207 223 188 140 142 145 153 122 113 104 99 102 109 112 116 119 121 121 118 113 109 104 86 74 64 52 47
235 240 239 229 233 230 234 238 233 250 255 198 202 254 217 230 225 224 189 204 142 142 140 149 134 119 111 112 115 114 116 119 126 131 133 129 122 111 106 99 92 54 34 31
219 214 223 230 235 238 239 243 220 240 238 171 246 220 249 245 209 190 193 197 146 141 143 142 129 122 122 117 115 115 114 110 111 114 120 121 116 114 112 101 91 79 55 22
247 260 230 224 230 234 250 256 275 241 211 221 202 205 245 201 172 176 183 151 140 139 136 127 124 125 122 123 121 119 113 108 113 117 119 119 119 116 106 98 85 72 55 26
230 244 239 318 252 224 230 210 226 218 194 221 191 182 254 55 121 174 166 144 140 139 139 134 135 135 140 134 131 126 120 111 112 113 115 115 111 109 103 87 71 57 39 15
223 242 196 192 234 212 207 209 205 166 193 153 164 204 213 146 111 119 138 140 142 148 142 146 147 146 148 147 145 135 126 119 118 115 114 114 110 103 89 72 64 47 19 7
262 231 207 202 212 186 184 218 239 265 188 127 185 127 51 111 93 134 142 146 155 157 150 154 148 147 152 153 149 141 133 125 122 119 117 108 104 95 83 69 45 29 2 357
189 280 193 196 206 199 208 204 205 232 164 164 181 184 176 162 154 157 152 160 158 156 153 156 149 148 155 156 147 143 140 132 129 127 122 110 100 88 79 50 33 9 359 345
174 212 288 252 188 170 185 214 233 111 232 145 130 181 154 161 158 172 166 163 162 163 160 155 149 149 153 147 149 145 141 139 133 129 125 118 98 82 64 38 15 359 352 338
177 271 274 244 281 177 176 226 233 226 42 298 113 135 77 102 122 154 178 165 160 157 154 150 144 142 146 153 155 149 149 143 139 134 129 111 98 87 55 25 2 347 338 331
161 217 193 341 151 42 212 228 280 351 312 214 66 171 110 108 111 142 151 147 153 147 145 147 140 144 152 162 159 157 154 144 144 138 128 117 108 74 43 359 344 337 330 326
186 182 210 256 108 131 175 208 242 205 337 359 59 128 140 137 133 130 138 143 147 152 154 155 151 149 161 165 163 157 148 147 145 140 131 126 102 62 8 346 339 330 325 322
229 250 214 243 132 156 169 184 241 207 223 24 237 137 169 166 158 161 153 135 145 161 162 160 151 153 160 160 157 153 148 149 149 140 137 125 93 20 360 338 326 323 320 320
220 297 313 88 74 154 172 188 204 218 212 242 271 303 156 169 133 134 160 159 167 170 160 148 149 153 153 156 152 148 147 147 150 144 135 112 80 11 339 323 322 321 323 324
183 251 314 51 83 82 349 206 197 209 218 213 223 238 103 97 133 152 161 165 159 157 151 148 152 149 149 152 150 145 147 149 147 140 130 113 41 348 323 324 326 327 326 323
186 217 316 6 32 102 223 53 232 205 209 215 238 249 19 149 84 54 59 124 109 119 128 131 131 129 138 140 142 144 143 145 144 139 131 108 350 323 326 328 329 326 325 322
173 157 329 114 262 321 232 13 195 180 234 210 206 215 110 107 68 32 23 74 93 98 101 109 122 125 127 130 136 134 137 142 143 136 135 118 327 320 329 326 326 329 326 323
100 97 60 1 136 238 80 348 314 53 299 347 243 186 140 127 135 181 106 80 73 69 85 96 112 121 124 129 136 139 142 144 139 146 146 24 310 319 324 327 329 325 321 316
134 104 205 205 325 305 103 147 314 110 255 327 328 132 136 94 167 128 103 89 91 97 101 113 120 124 131 139 145 139 137 136 150 139 92 310 313 325 334 326 322 321 318 316
169 146 165 123 167 265 144 61 147 176 350 23 64 93 100 103 97 101 103 104 102 105 111 120 112 119 132 143 143 133 134 145 132 127 267 318 336 337 330 321 319 320 320 320
169 196 171 188 206 203 83 84 137 100 117 75 94 102 111 110 111 116 118 116 120 118 120 125 123 126 131 134 143 136 140 140 149 153 353 347 340 334 323 322 325 323 325 322
199 201 223 146 190 181 134 76 45 116 104 93 97 107 112 119 121 119 118 121 119 126 132 136 137 137 132 137 130 142 146 147 129 44 4 348 334 324 326 328 327 324 322 320
186 138 170 98 100 66 204 175 123 98 96 93 82 100 113 116 116 123 127 129 131 138 144 149 151 150 144 146 142 145 144 131 72 18 356 336 327 330 332 329 324 321 319 320
192 185 161 220 181 172 163 147 125 119 120 111 107 83 84 100 104 104 105 121 133 138 147 149 143 142 146 148 144 144 130 81 40 4 333 328 333 334 331 323 320 319 318 321